Weather in Sevastopol'

Russia / Kaluga Oblast     53°27′24″N   35°11′04″E
temp.,
°C
wind,
m/s
gust,
m/s
humid.,
%
clouds,
%
prec.,
mm/h
press.,
hPa
HPBL,
m
20 june, sun
sun2000:00+17se22950 0.0 102326
03:00+16se22970 0.0 102425
06:00+17ese13910 0.0 1023105
09:00+23ese34590 0.0 1022617
12:00+26ese34425 0.0 10221180
15:00+27ese334293 0.0 10211270
18:00+26ese3457100 0.0 1020840
21:00+19se228796 0.0 102131
21 june, mon
mon2100:00+18ese2490100 0.0 102073
03:00+17ese279476 0.0 1020139
06:00+18ene268730 0.0 1020171
09:00+24e36595 0.0 1020528
12:00+28ese564741 0.0 10191035
15:00+29ese564783 0.0 10181030
18:00+27ese365944 0.0 1018829
21:00+21ese39915 0.0 1019228
22 june, tue
tue2200:00+18se299718 0.0 1019209
03:00+17ese259770 0.0 101998
06:00+18ese27905 0.0 1020174
09:00+25se47583 0.0 1020512
12:00+30ese46413 0.0 10191117
15:00+31se56420 0.0 10191417
18:00+29se365729 0.0 10191071
21:00+23ese288861 0.0 1020159
23 june, wed
wed2300:00+20ese26964 0.0 1020114
03:00+19ese25975 0.0 102192
06:00+20e26903 0.0 1021161
09:00+27ese365910 0.0 1021543
12:00+31ese454224 0.0 10211146
15:00+31ese55405 0.0 10201451
18:00+29ese35547 0.0 10201085
21:00+23ese24855 0.0 102171
24 june, thu
thu2400:00+21ese268933 0.0 1021114
03:00+19ese229351 0.1 102141
06:00+20e249227 0.2 102196
09:00+27ese35638 0.2 1021509
12:00+31se34468 0.0 10201430
15:00+33sse334061 0.0 10191965
18:00+30sse34527 0.0 1019759
21:00+24se22831 0.0 101829